TimeMDT,TemperatureF,Dew PointF,Humidity,Sea Level PressureIn,VisibilityMPH,Wind Direction,Wind SpeedMPH,Gust SpeedMPH,PrecipitationIn,Events,Conditions,WindDirDegrees,DateUTC
12:52 AM,33.1,19.9,59,30.44,10.0,NNE,9.2,-,N/A,,Overcast,20,2012-10-06 06:52:00
1:52 AM,33.1,19.0,56,30.45,10.0,NW,4.6,-,N/A,,Overcast,320,2012-10-06 07:52:00
2:52 AM,32.0,21.9,66,30.45,10.0,NW,6.9,-,N/A,,Overcast,320,2012-10-06 08:52:00
3:52 AM,32.0,21.9,66,30.44,10.0,NNW,6.9,-,N/A,,Overcast,330,2012-10-06 09:52:00
4:52 AM,32.0,21.9,66,30.45,10.0,NNW,6.9,-,N/A,,Overcast,330,2012-10-06 10:52:00
5:52 AM,30.2,23.0,75,30.38,6.0,North,8.1,-,N/A,Snow,Light Snow,360,2012-10-06 11:52:00
6:52 AM,30.0,21.9,72,30.47,5.0,North,3.5,-,0.00,Snow,Light Snow,360,2012-10-06 12:52:00
7:02 AM,30.2,23.0,75,30.38,6.0,Calm,Calm,-,0.00,Snow,Light Snow,0,2012-10-06 13:02:00
7:52 AM,30.0,21.0,69,30.48,10.0,North,4.6,-,0.00,,Mostly Cloudy,360,2012-10-06 13:52:00
8:52 AM,34.0,21.9,61,30.49,10.0,NNW,11.5,-,N/A,,Scattered Clouds,340,2012-10-06 14:52:00
9:52 AM,37.0,19.9,50,30.48,10.0,NNW,10.4,-,N/A,,Clear,330,2012-10-06 15:52:00
10:52 AM,39.0,17.1,41,30.45,10.0,NNW,10.4,18.4,N/A,,Mostly Cloudy,340,2012-10-06 16:52:00
11:52 AM,41.0,18.0,40,30.44,10.0,North,15.0,20.7,N/A,,Clear,350,2012-10-06 17:52:00
12:52 PM,42.1,14.0,32,30.42,10.0,NW,9.2,-,N/A,,Clear,320,2012-10-06 18:52:00
1:52 PM,43.0,15.1,32,30.39,10.0,Calm,Calm,-,N/A,,Partly Cloudy,0,2012-10-06 19:52:00
2:52 PM,43.0,14.0,31,30.37,10.0,Variable,4.6,-,N/A,,Scattered Clouds,0,2012-10-06 20:52:00
3:52 PM,39.9,15.1,36,30.37,10.0,Calm,Calm,-,N/A,,Clear,0,2012-10-06 21:52:00
4:52 PM,39.0,19.9,46,30.35,10.0,SSE,4.6,-,N/A,,Partly Cloudy,150,2012-10-06 22:52:00
5:52 PM,39.9,19.9,45,30.33,10.0,SSE,5.8,-,N/A,,Clear,160,2012-10-06 23:52:00
6:52 PM,37.0,19.9,50,30.33,10.0,SSW,3.5,-,N/A,,Clear,200,2012-10-07 00:52:00
7:52 PM,28.9,18.0,64,30.35,10.0,Calm,Calm,-,N/A,,Clear,0,2012-10-07 01:52:00
8:52 PM,25.0,15.1,66,30.34,10.0,Calm,Calm,-,N/A,,Clear,0,2012-10-07 02:52:00
9:52 PM,21.0,14.0,74,30.33,10.0,West,3.5,-,N/A,,Clear,280,2012-10-07 03:52:00
10:52 PM,28.4,19.4,69,30.20,10.0,WSW,4.6,-,N/A,,Clear,250,2012-10-07 04:52:00
11:52 PM,27.0,17.1,66,30.26,10.0,SW,4.6,-,N/A,,Clear,230,2012-10-07 05:52:00